Simultaneous Nadir Overpasses (SNOs) Predictions

Prediction of SNOs between GOES-15 and TERRA Satellite Orbit:

Table of predicted SNOs for the next 14.0 days since TLE Epoch: 6/7/2014
Index Date Time (GOES-15) GOES-15 Lat,Lon TERRA Lat,Lon Distance(km) Time Diff (sec)
1 06/08/2014 07:28:47 0.07,-135.33 0.11,-134.98 38.77 80
2 06/10/2014 07:16:36 0.07,-135.36 0.77,-132.03 378.66 80
3 06/10/2014 19:40:30 -0.06,-135.36 0.35,-137.18 207.34 80
4 06/12/2014 19:25:40 -0.06,-135.39 -0.32,-134.23 131.58 80
5 06/13/2014 07:49:43 0.05,-135.40 -0.80,-139.42 457.06 80
6 06/14/2014 19:13:28 -0.07,-135.41 -0.94,-131.27 469.66 80
7 06/15/2014 07:37:31 0.06,-135.42 -0.18,-136.46 119.12 80
8 06/17/2014 07:22:39 0.07,-135.43 0.45,-133.50 218.41 80
9 06/17/2014 19:46:34
